Theta_e
319 320 321 323 325 327 329 329 330 331 331 332 332 332 333 333 333 334 335 336 336 336 336 336 336 335 335 335 336 336 338 341 343 345 345 345 346 346 346 346 345 345 345 344 344 343 343 344 343 343 342 342 342 342 341 340 341 341 340 339 339 338 340 340 340 342 341 339 338 339 339 339 339 339
317 317 317 317 319 321 325 327 328 328 329 330 331 331 332 332 333 334 334 335 335 335 336 336 335 335 335 334 334 335 336 338 340 342 344 345 346 346 346 345 345 345 344 344 344 344 343 343 342 341 341 341 342 343 342 341 341 341 341 340 339 338 339 340 340 341 342 340 339 339 339 339 339 338
316 316 316 316 316 316 318 322 325 327 327 328 329 330 331 332 332 333 333 334 334 334 335 335 335 335 335 335 334 334 334 336 339 340 342 345 346 346 346 345 345 345 345 345 344 343 343 343 342 341 341 341 341 342 342 342 341 341 341 341 340 339 339 339 340 340 341 342 341 339 339 339 339 338
316 317 317 317 317 316 316 317 319 322 324 326 327 328 329 330 331 333 332 332 333 334 334 334 335 335 335 335 334 334 334 335 337 338 340 343 346 346 347 346 346 346 346 345 344 344 343 343 342 341 342 341 341 341 341 342 342 342 342 342 341 340 339 339 339 340 340 341 341 340 339 340 339 338
315 316 316 317 317 317 317 315 315 317 319 322 324 326 327 328 330 331 332 332 332 333 334 334 335 334 335 335 334 334 335 334 335 336 337 339 341 342 342 344 346 347 346 345 345 344 343 343 342 341 343 343 342 341 341 341 341 341 342 342 341 340 340 339 339 339 339 340 340 340 339 339 339 338
312 312 312 313 314 315 315 314 314 315 315 317 320 323 325 326 327 328 330 331 331 332 333 333 334 334 334 334 333 333 334 335 335 335 335 335 336 336 336 339 343 346 348 347 346 345 343 342 342 343 343 343 341 341 341 341 341 340 341 340 341 341 340 340 340 339 339 340 340 341 340 340 339 339
311 311 310 309 310 312 313 313 314 314 314 315 316 318 321 323 325 327 327 328 330 331 332 332 332 333 333 333 333 334 334 335 335 335 334 334 335 335 336 337 340 344 346 347 346 346 345 344 344 344 344 344 342 341 342 343 341 340 340 341 341 341 341 340 340 339 340 340 340 341 341 340 339 339
310 310 309 308 308 310 312 313 315 315 314 314 315 316 318 320 323 325 325 326 328 330 330 331 331 331 332 332 333 333 334 334 334 334 334 334 335 336 337 338 338 340 343 345 346 347 346 346 346 345 345 344 343 343 343 343 342 340 340 341 341 340 341 341 340 340 341 341 341 341 341 340 340 340
310 309 308 307 307 309 311 313 315 316 316 315 315 316 317 319 321 323 323 324 327 329 330 330 330 330 330 331 331 331 333 333 333 333 333 333 335 336 337 337 337 338 340 342 344 347 346 346 347 346 345 344 345 346 345 343 343 341 340 341 341 340 340 341 341 340 341 341 341 341 341 341 341 341
307 306 307 306 306 307 310 313 315 316 317 317 317 316 317 319 321 322 322 324 326 328 329 329 328 329 329 330 330 330 330 331 331 332 333 333 334 334 335 335 335 337 337 338 341 343 344 346 346 346 345 344 346 347 347 345 345 342 340 340 340 339 339 339 340 340 340 341 341 341 341 341 341 341
303 304 305 305 305 307 310 313 314 315 316 318 318 318 318 319 320 321 322 323 325 326 327 327 327 327 327 328 328 328 328 329 329 330 331 331 331 332 333 334 334 335 336 337 338 338 340 344 345 346 345 345 345 346 347 347 345 343 340 339 339 339 338 336 337 338 339 338 339 341 341 341 341 341
301 302 304 304 305 306 309 311 312 314 316 318 319 319 319 319 319 320 320 321 322 323 324 324 324 324 324 325 325 326 327 327 327 328 329 329 330 330 331 332 333 333 334 336 337 338 339 341 343 345 346 346 346 346 347 347 345 343 342 341 340 339 338 335 333 333 335 336 337 338 338 339 341 342
301 302 302 303 305 305 306 308 310 312 314 317 319 319 320 320 319 319 319 319 319 319 320 321 321 321 321 321 322 322 323 323 325 325 326 327 328 329 330 331 331 332 333 334 336 337 339 340 341 343 344 346 346 346 346 347 347 346 344 343 342 341 340 338 334 331 331 333 335 336 335 335 338 340
304 302 302 303 304 304 305 306 308 312 313 315 316 317 318 318 318 318 318 317 317 317 317 317 317 318 317 318 318 318 319 320 321 323 324 324 326 327 328 330 330 330 331 332 334 335 336 338 339 341 342 344 345 345 345 346 347 347 346 345 344 343 341 340 338 335 333 332 332 334 334 334 334 336
306 304 303 303 303 303 304 304 306 311 313 314 314 315 316 316 316 316 317 317 316 316 316 316 316 316 316 316 317 316 317 318 318 320 321 322 323 324 326 328 329 329 329 330 332 334 334 335 337 338 339 341 343 345 345 345 346 347 347 345 345 344 343 342 340 338 337 336 334 335 336 336 335 334
306 305 305 304 303 303 304 304 304 307 311 313 313 314 314 315 316 316 316 317 316 316 316 315 316 317 317 317 317 316 316 317 317 318 319 320 321 322 323 325 326 327 327 328 331 332 333 334 334 335 336 337 339 341 342 344 345 346 346 345 345 345 344 343 342 341 340 339 339 338 338 339 339 337
306 306 306 305 305 304 304 304 304 304 306 308 309 310 312 313 314 315 315 316 316 316 315 315 317 318 317 317 317 316 316 316 316 317 318 319 321 321 322 322 323 325 325 327 328 330 331 332 332 333 334 334 335 336 336 337 340 343 345 345 345 345 344 343 343 342 341 341 341 341 340 341 341 341
305 306 306 306 306 306 305 305 305 304 304 304 304 305 307 310 312 313 314 314 315 316 315 315 317 318 317 317 317 317 316 315 315 316 316 317 319 320 321 321 321 322 323 324 326 327 329 331 331 332 333 334 335 336 335 334 334 336 339 343 345 345 345 344 343 342 341 341 341 341 341 341 341 341
305 305 306 306 306 306 306 306 306 305 305 305 305 303 304 308 311 312 312 314 315 315 315 315 316 317 317 317 317 316 316 316 315 315 316 316 317 318 320 321 321 321 322 322 323 324 326 328 330 331 333 334 335 336 337 336 335 333 334 337 341 345 346 345 344 343 342 341 340 341 341 341 341 341
305 305 305 306 307 307 307 307 306 305 305 306 305 305 304 307 311 312 312 313 314 314 314 314 315 317 316 316 316 315 315 315 315 315 315 315 316 316 318 320 321 321 321 321 322 322 323 325 327 330 332 334 335 336 337 338 337 336 335 334 336 342 346 346 346 345 344 343 342 341 341 342 342 342
305 305 306 306 307 307 307 307 306 306 306 305 305 305 304 305 308 311 312 312 312 312 313 313 314 314 314 314 314 314 313 313 313 313 314 315 316 316 317 319 320 321 320 321 321 321 322 323 325 328 330 332 334 336 336 337 337 338 338 337 336 339 343 345 345 346 346 345 345 343 343 343 343 343
305 305 306 307 307 307 307 307 306 306 306 306 305 305 305 304 305 308 310 311 311 311 311 312 312 312 312 313 313 312 312 312 312 312 313 315 316 316 317 319 320 320 320 320 320 321 322 323 324 327 329 330 332 334 335 335 336 336 337 338 338 338 339 342 344 345 346 346 346 346 345 345 345 345
305 306 307 307 307 307 307 306 306 306 306 306 306 305 305 305 303 302 304 307 309 310 311 312 312 311 312 312 311 312 312 311 311 312 313 315 316 316 317 318 318 319 319 319 319 321 322 323 324 327 329 330 330 332 333 333 334 335 335 336 337 338 338 340 341 343 345 345 346 347 346 346 346 346
306 306 307 307 307 307 307 306 306 306 306 306 306 305 305 304 302 299 300 301 303 305 306 308 309 310 310 310 310 311 311 310 311 313 313 315 317 317 317 318 318 318 318 318 319 320 320 322 324 326 328 330 329 329 331 331 332 333 334 334 335 335 337 338 339 340 342 343 344 345 346 345 345 345
306 307 307 307 307 307 307 306 306 306 306 306 305 305 304 302 300 299 301 302 301 301 300 302 303 304 306 309 310 311 310 310 311 313 313 314 316 317 317 318 319 319 319 319 320 320 319 320 322 324 326 328 328 329 329 330 330 331 332 333 334 334 335 336 337 337 339 340 341 342 343 344 345 345
306 307 307 307 307 307 306 306 306 306 306 306 305 304 302 300 299 300 302 302 302 301 301 300 300 302 305 308 309 310 309 309 309 311 313 314 316 317 317 318 319 320 320 320 320 321 320 320 321 323 324 325 326 328 328 328 329 330 331 332 332 332 333 334 335 336 336 337 339 340 341 342 342 343
306 307 307 306 306 306 306 306 306 306 306 306 304 303 300 299 300 301 302 302 301 300 300 299 300 303 306 307 308 308 308 307 308 310 312 313 315 317 317 317 318 318 319 320 320 320 321 321 321 322 324 324 325 326 327 328 328 330 330 330 331 332 332 332 333 334 335 335 336 338 339 340 341 341
307 307 307 306 306 306 305 305 305 305 305 305 304 302 300 300 301 301 300 300 299 299 298 297 299 302 305 306 306 306 306 306 307 309 311 312 313 315 316 316 316 317 318 319 319 319 319 320 320 321 322 323 324 325 326 327 327 328 329 329 330 331 331 331 332 332 332 333 334 335 336 338 340 341
306 307 307 306 306 306 305 305 305 305 305 305 304 302 301 301 301 300 299 299 299 299 298 298 298 300 302 303 304 305 305 304 305 308 311 312 312 314 315 314 314 315 316 317 318 318 317 317 317 318 320 322 323 324 325 326 327 327 328 329 329 329 329 329 330 330 330 330 331 332 334 335 336 338
306 306 306 306 306 306 305 304 305 305 305 305 303 302 302 302 302 300 299 298 298 299 299 298 299 300 301 303 304 304 304 303 303 305 309 311 312 312 314 313 313 315 315 316 316 316 316 316 316 317 319 321 322 323 324 326 326 326 327 327 327 327 327 327 328 328 328 328 329 329 330 331 331 333
306 306 306 305 306 306 305 304 305 305 305 304 303 303 303 303 302 302 301 300 298 298 298 298 299 299 300 302 302 302 302 302 302 303 306 310 311 312 313 313 313 313 314 315 315 315 315 315 315 315 317 319 321 322 324 325 325 325 326 325 325 326 325 325 325 325 325 325 326 326 327 328 329 329
307 307 306 306 306 306 305 304 304 305 305 304 303 303 303 303 302 302 302 301 299 298 298 298 298 299 299 300 300 299 300 300 300 301 302 306 309 311 311 312 312 312 313 313 314 314 314 314 315 314 315 318 320 322 323 323 324 324 324 324 323 323 323 323 323 323 323 322 323 323 324 326 328 329
308 307 307 306 306 306 305 304 304 305 305 304 304 304 303 303 303 303 302 302 300 299 298 298 298 298 298 298 299 299 299 299 299 300 300 302 305 307 309 310 311 311 312 312 312 313 313 313 313 313 314 316 320 321 322 322 323 323 323 322 322 322 321 321 321 322 322 321 320 321 322 325 326 327
308 308 308 307 307 306 305 304 304 304 304 304 304 304 304 303 303 303 303 303 302 300 298 298 298 298 298 298 298 299 299 299 299 300 300 300 302 304 307 309 309 310 310 310 311 311 311 312 312 312 313 316 318 320 321 321 321 322 322 321 321 320 320 320 320 320 320 320 319 319 320 322 324 326
309 309 309 308 307 306 306 305 304 304 304 304 303 303 304 304 304 304 303 303 303 301 299 298 298 298 298 299 299 299 299 300 300 300 301 301 302 304 306 308 308 308 309 309 309 309 310 310 309 310 312 315 317 318 319 319 319 320 321 320 320 319 317 317 317 317 317 317 317 317 317 319 322 323
309 309 309 308 307 307 306 305 304 304 304 304 303 303 303 304 304 304 304 303 303 302 300 298 298 298 298 299 299 299 299 300 299 300 300 301 302 303 305 306 306 307 307 307 308 308 309 309 308 308 311 314 316 317 317 317 317 318 319 319 317 315 313 312 313 313 313 314 315 314 315 316 318 320
310 309 308 307 307 307 306 306 305 304 304 304 304 304 304 304 304 304 304 303 303 302 301 298 298 298 298 298 299 299 299 299 299 299 300 301 301 302 303 304 305 305 306 306 307 307 308 308 307 308 310 313 315 315 316 316 316 316 316 316 314 312 310 311 311 311 311 312 312 313 313 314 316 317
310 309 308 307 307 307 306 306 305 305 304 304 304 304 304 304 304 304 304 304 303 302 301 299 298 298 298 298 298 298 298 298 298 299 299 300 301 301 301 301 302 303 303 304 305 306 307 307 307 307 309 311 313 313 314 314 314 313 313 313 313 312 310 310 310 310 310 311 310 311 312 313 315 317
310 309 308 308 307 307 307 306 306 305 305 304 304 304 304 304 304 304 304 304 303 302 301 299 298 298 298 298 298 298 298 298 298 299 299 300 300 301 300 300 300 301 301 302 303 304 305 306 306 306 307 310 311 311 311 311 312 312 312 312 312 312 311 311 310 309 309 309 309 310 311 313 315 315
309 309 308 308 308 307 307 307 306 305 305 304 304 304 304 304 304 304 304 304 303 302 301 299 298 298 298 298 298 298 298 298 299 299 299 299 300 300 300 300 299 299 300 300 301 302 303 304 305 305 306 309 310 309 308 309 309 310 311 311 311 311 312 311 311 310 310 309 309 309 310 311 313 313
310 309 309 309 308 308 307 306 306 306 305 305 304 304 304 304 304 304 304 304 303 303 302 300 298 298 298 298 298 298 298 298 299 299 299 298 299 300 300 299 299 299 300 301 301 302 303 303 304 304 306 308 309 309 308 308 308 308 309 310 311 311 311 311 311 311 311 310 310 309 309 310 311 311
311 310 310 310 309 308 307 307 307 306 306 305 305 305 305 304 304 304 304 304 303 303 303 302 300 298 298 298 298 298 298 298 299 300 300 299 299 300 300 300 300 300 301 302 303 303 304 304 304 305 306 308 309 308 308 307 307 307 308 309 309 310 310 310 310 310 311 311 310 309 309 309 311 311
311 311 311 310 310 309 308 307 307 307 306 305 305 305 305 304 304 304 304 304 303 303 303 302 301 298 298 298 298 298 298 298 299 300 300 299 299 300 300 300 300 301 302 303 304 304 305 305 306 306 307 307 308 308 308 308 308 308 308 308 308 308 309 309 310 310 311 311 311 309 308 309 310 311
311 311 311 311 310 310 309 309 308 307 306 306 305 305 305 304 304 304 304 304 304 303 303 303 301 299 298 298 298 298 298 298 298 299 300 299 299 300 300 300 301 301 302 303 304 304 305 306 306 306 307 307 307 308 308 308 308 308 308 308 307 307 308 309 309 310 311 311 310 309 309 308 308 308
312 311 311 311 311 311 310 310 309 308 307 306 305 305 305 304 304 304 304 303 303 303 303 303 302 300 298 298 298 298 298 298 298 299 299 299 299 300 300 301 301 301 302 303 304 304 305 305 306 306 307 307 307 307 307 307 307 307 307 307 307 307 307 308 309 309 309 309 309 309 308 308 308 308
Wind_Speed
7 7 7 7 7 7 6 6 6 6 7 8 8 9 8 8 7 5 5 6 6 6 6 7 8 9 11 11 12 10 4 2 5 6 10 14 17 20 24 26 26 26 29 31 30 31 32 32 31 31 31 31 32 32 31 30 30 29 28 28 27 27 27 27 27 26 26 25 25 25 25 25 24 23
10 10 10 9 8 8 7 6 6 6 6 7 7 8 7 7 7 6 4 4 5 5 6 7 7 8 10 10 11 11 7 4 5 6 7 10 14 18 21 25 27 28 29 31 32 32 31 32 33 33 33 33 32 32 31 30 29 29 29 28 28 28 27 27 27 27 26 25 25 26 26 26 26 25
11 11 11 10 9 8 8 8 8 8 7 7 6 7 7 7 7 6 3 2 3 4 5 6 7 8 9 10 10 10 9 7 6 6 6 7 11 15 18 21 25 27 28 29 31 33 32 31 32 33 34 34 33 32 31 30 29 29 28 28 27 27 27 27 27 27 27 26 26 26 26 26 26 26
10 10 10 10 9 9 9 9 9 9 9 8 8 8 8 7 7 6 4 1 1 3 4 4 5 6 7 7 7 8 8 8 8 8 7 6 8 12 14 18 23 26 27 29 30 32 33 32 31 32 33 34 33 33 31 30 29 29 28 28 27 26 27 27 27 27 27 27 26 26 26 27 27 27
11 11 10 9 9 9 10 10 9 9 10 10 9 9 9 8 8 7 5 2 1 2 3 3 4 5 5 5 5 6 6 7 8 9 8 6 7 9 8 11 19 24 25 27 29 31 32 32 32 32 33 33 34 35 33 31 30 29 29 28 27 26 26 26 26 27 27 27 26 26 27 28 27 27
13 13 13 12 9 8 9 11 10 9 9 10 10 11 10 9 9 8 7 5 4 3 3 3 3 3 4 5 5 5 5 7 8 8 9 8 8 9 10 11 11 18 23 25 27 30 31 32 33 34 33 33 35 36 35 33 31 30 30 29 28 27 26 27 26 26 26 25 25 26 27 29 29 28
15 15 15 14 11 8 7 9 9 9 8 8 8 10 11 10 9 9 8 8 7 5 3 4 4 3 4 4 5 6 6 6 7 7 8 8 9 10 9 10 8 7 16 23 27 28 29 31 32 32 32 32 35 36 35 34 33 31 31 29 28 27 27 27 26 25 25 24 24 25 26 29 30 29
16 17 16 15 13 9 6 8 9 9 9 7 6 6 7 8 8 9 9 9 8 7 5 5 5 4 4 3 4 4 4 5 6 6 6 6 8 10 9 9 8 5 5 11 23 27 26 28 30 30 31 31 33 34 34 34 33 31 31 30 28 28 28 27 26 26 25 25 24 25 26 27 28 29
15 16 15 14 13 10 7 8 9 9 10 8 7 5 4 3 4 7 9 8 8 7 6 5 5 5 5 4 3 2 1 2 3 4 5 5 6 8 9 9 8 6 8 3 11 21 23 25 27 28 31 31 30 31 32 32 32 32 32 31 29 29 28 28 27 26 26 25 25 25 25 25 26 28
15 14 13 13 13 11 9 9 9 9 10 9 7 5 3 2 2 3 7 7 6 5 4 5 6 7 7 6 6 5 3 2 2 3 4 4 5 6 7 9 11 9 9 7 1 8 14 20 24 26 28 30 30 30 30 31 32 33 33 32 31 30 29 28 27 26 26 25 25 25 25 25 26 27
14 13 12 12 12 12 10 10 9 9 10 10 9 6 4 3 3 1 3 6 6 6 5 7 8 9 9 8 8 8 7 6 5 4 5 4 4 6 7 8 10 11 9 8 6 3 2 8 17 23 25 27 29 31 31 31 32 34 35 34 32 31 30 30 29 28 27 26 26 25 25 26 26 26
16 14 13 12 12 12 11 10 10 8 8 10 11 9 5 4 4 3 2 3 5 6 7 9 9 9 10 10 9 9 8 7 6 6 5 5 5 5 7 8 9 10 10 10 8 5 5 4 5 15 21 24 27 29 31 32 33 34 35 34 33 32 30 29 29 29 28 27 27 27 26 26 27 26
18 16 14 13 11 11 10 9 9 7 5 7 10 11 8 6 5 6 6 4 4 5 6 8 8 9 10 10 10 10 10 8 7 6 6 6 5 5 6 6 7 8 8 9 9 6 5 5 2 5 12 19 24 26 29 31 33 34 35 35 34 33 32 30 28 28 28 27 27 26 26 26 26 26
18 17 15 13 11 9 9 9 8 6 4 4 7 9 9 8 8 8 9 9 8 9 9 8 8 8 9 9 9 10 10 9 8 7 6 5 5 5 5 4 3 5 6 6 7 7 6 5 2 1 4 9 16 21 24 27 30 33 35 35 35 33 32 31 30 29 28 28 27 26 25 25 25 26
15 16 15 14 12 10 9 9 7 6 5 5 7 8 9 10 11 11 11 11 11 12 11 10 9 8 7 6 6 7 8 8 8 7 6 6 6 5 5 4 3 3 5 6 6 6 5 5 5 2 2 4 7 12 16 20 24 28 31 32 32 32 31 31 31 30 29 28 27 26 26 26 26 26
12 13 14 14 14 12 10 9 9 7 5 5 7 9 9 10 11 11 12 12 12 12 10 9 9 8 8 7 5 5 5 6 6 6 5 5 5 5 6 5 4 2 3 4 5 5 5 5 5 5 3 2 4 7 10 10 13 19 25 28 29 30 31 31 31 31 30 29 29 28 27 26 26 26
10 11 12 13 14 14 12 11 11 11 8 7 8 8 9 9 9 10 11 11 10 9 8 8 7 7 8 7 7 7 7 7 6 5 4 3 3 4 6 7 6 4 3 2 2 3 5 5 4 5 5 4 4 5 8 8 7 9 16 23 28 29 30 30 31 31 31 30 30 30 29 28 28 28
10 9 10 13 15 15 14 13 14 14 12 11 10 9 8 8 8 8 7 7 7 7 7 8 7 5 6 7 7 8 9 10 8 7 7 5 3 3 5 7 8 7 6 4 2 2 4 4 5 5 5 6 6 6 5 6 7 7 7 11 19 25 28 30 30 30 31 31 31 31 30 30 29 29
11 10 9 11 14 15 15 14 14 15 15 13 12 11 9 7 7 7 7 6 6 7 8 9 8 6 6 6 7 8 10 11 12 12 11 9 6 4 4 6 8 8 8 7 5 3 2 3 4 4 5 6 7 7 6 5 5 6 6 5 8 16 23 27 29 30 31 32 32 32 31 31 30 30
12 11 9 10 13 14 14 14 14 15 16 15 13 13 11 7 4 5 6 7 6 7 8 9 8 7 7 8 9 10 11 13 14 14 13 11 7 4 4 5 7 7 7 7 6 4 2 1 2 3 4 4 5 5 5 5 5 5 5 5 5 8 13 19 24 26 29 31 33 33 33 32 32 32
11 11 9 10 12 13 13 14 15 15 17 16 15 14 12 9 4 2 2 4 5 6 6 6 6 7 8 10 11 12 13 15 15 14 12 9 6 4 2 3 5 5 5 5 5 4 3 1 1 1 2 3 4 4 4 5 6 6 5 3 5 7 7 10 15 19 23 26 30 33 35 35 34 33
10 9 9 10 13 12 12 13 15 16 16 15 16 16 14 12 8 4 3 3 4 4 4 5 6 7 9 10 12 12 13 14 14 13 12 8 5 3 2 2 2 4 4 4 4 4 3 2 1 1 1 1 3 3 3 4 5 6 6 5 3 6 7 6 8 13 17 21 25 29 33 33 33 33
9 8 8 11 12 11 11 14 16 16 15 15 15 17 17 16 13 9 5 5 7 7 7 7 8 9 9 11 11 11 11 12 12 12 13 10 7 5 2 1 1 3 4 4 4 3 3 2 2 1 2 1 2 3 3 4 5 6 6 6 6 4 3 5 6 9 13 17 19 22 23 24 26 29
7 7 10 12 12 10 12 15 16 16 15 15 16 18 19 18 16 13 9 7 6 7 8 10 11 11 10 10 9 9 9 9 9 10 12 10 9 9 7 4 3 3 5 6 5 5 4 3 2 2 3 3 1 2 4 4 4 5 5 5 6 6 3 2 5 7 8 10 12 14 15 15 19 25
8 8 11 13 13 12 13 15 16 15 13 14 16 18 19 18 15 13 10 9 8 8 7 8 9 9 9 8 7 7 7 7 8 9 10 10 9 8 7 6 5 3 5 6 6 5 5 4 3 1 2 3 2 2 3 4 5 5 4 4 4 5 5 4 1 4 5 6 6 9 11 12 15 20
10 10 12 13 13 13 14 15 14 13 11 13 16 18 18 16 13 11 11 10 10 9 8 8 8 7 6 5 5 6 6 7 8 9 9 10 9 8 7 7 6 3 3 5 6 6 6 6 4 2 0 1 2 2 3 3 4 4 4 4 4 4 5 5 4 2 2 3 4 6 7 8 10 14
11 10 11 12 12 13 15 15 12 11 10 13 17 19 17 14 12 11 11 11 11 10 9 9 7 6 5 4 4 5 6 5 8 10 10 9 9 8 7 8 7 4 2 3 4 5 6 6 5 3 1 0 1 1 1 1 2 3 3 3 4 5 4 4 4 4 3 1 1 2 3 5 6 9
11 10 10 12 13 14 15 14 12 10 10 12 16 18 16 13 12 12 12 12 11 10 9 7 6 5 4 5 5 6 6 6 6 8 8 8 8 8 7 7 7 6 4 3 3 4 4 5 5 4 3 1 1 2 2 2 1 1 1 2 2 3 4 4 4 5 5 4 4 3 1 2 5 7
11 10 11 12 13 15 16 14 10 8 10 12 14 15 14 15 15 15 14 14 13 12 11 10 8 7 6 6 6 7 8 7 5 3 3 4 5 6 6 7 7 6 4 4 4 4 5 6 6 6 4 2 1 2 3 3 2 2 1 1 2 3 3 4 4 5 5 5 5 5 4 2 1 3
10 11 11 11 12 15 17 14 8 7 9 10 11 11 13 15 15 16 16 15 15 14 13 12 10 9 8 8 8 8 8 8 6 1 2 0 2 2 3 6 7 8 7 5 5 5 5 6 8 8 5 2 1 1 2 2 2 2 1 1 2 2 3 4 4 4 5 6 6 6 6 5 4 3
8 9 10 10 12 15 16 12 7 6 8 8 8 10 12 14 15 16 16 16 15 14 13 12 11 10 9 8 8 8 8 8 7 3 2 3 2 3 4 5 6 7 7 6 6 5 6 7 8 8 7 4 1 1 1 1 1 1 2 2 2 3 4 5 5 5 5 6 7 7 7 7 6 6
7 7 8 9 11 13 14 12 7 6 7 7 7 9 11 13 15 16 16 16 16 15 14 12 10 9 8 8 9 9 9 8 8 5 2 2 3 4 5 5 5 5 5 5 5 5 6 7 8 7 6 5 2 1 0 1 1 1 2 3 3 4 5 6 6 6 6 6 6 6 6 6 6 6
7 7 7 8 10 12 13 12 8 6 5 6 7 8 9 11 14 16 16 16 16 17 16 13 11 9 8 8 9 9 9 8 8 7 4 2 3 4 6 7 7 6 5 4 4 4 5 7 7 7 6 4 2 2 2 2 2 1 1 2 3 4 5 5 5 5 6 6 5 5 4 4 4 4
8 7 7 7 8 10 12 12 9 7 5 6 7 7 8 9 11 14 17 17 17 17 17 16 14 11 10 9 8 8 7 7 8 7 5 3 2 3 4 5 6 6 6 5 4 4 5 6 6 6 5 4 3 4 4 3 3 3 2 2 3 3 3 3 3 4 4 5 5 5 4 2 2 2
7 7 7 7 7 8 10 11 10 8 7 7 7 7 7 8 9 11 15 17 17 16 16 17 16 14 12 11 10 8 7 7 7 6 5 4 3 2 3 3 4 4 5 5 5 4 4 4 5 5 5 4 4 4 3 3 4 4 4 3 4 2 1 0 2 2 2 3 5 7 5 3 1 1
8 7 7 5 5 6 8 9 10 9 8 8 8 8 7 7 8 10 12 15 16 15 15 15 15 15 14 12 10 10 8 7 6 5 4 3 3 3 3 4 4 4 4 4 4 4 4 4 4 3 3 4 4 4 3 2 3 4 5 4 3 3 3 2 1 1 2 3 5 7 6 3 1 1
7 7 6 4 3 4 6 8 9 9 9 9 9 9 9 8 8 9 10 12 15 15 14 14 14 15 15 13 11 11 10 8 6 5 4 4 5 5 5 5 5 5 5 4 4 4 4 3 3 3 1 2 3 3 3 3 3 4 4 5 5 5 5 4 3 2 2 4 5 5 4 2 0 1
7 6 5 3 2 3 5 7 8 8 9 10 9 10 10 10 9 9 9 10 13 14 13 13 13 14 15 14 13 13 12 10 8 6 6 5 5 6 7 6 6 6 6 5 5 5 4 4 3 2 1 1 4 4 3 3 5 6 5 5 6 6 5 4 3 2 3 4 4 5 4 4 3 2
7 7 5 3 3 3 4 6 7 8 8 9 10 10 10 10 9 9 8 9 11 13 12 12 11 12 13 13 13 14 13 11 8 8 8 7 7 7 8 8 7 6 5 5 5 6 5 5 4 2 1 2 5 7 7 7 7 7 6 6 6 5 5 4 2 2 3 3 4 4 5 4 4 4
8 8 6 5 4 3 4 6 7 8 8 8 9 10 10 10 9 8 7 9 11 12 12 11 11 11 12 12 12 13 13 10 9 9 9 9 9 8 8 8 7 5 3 3 4 5 5 5 4 3 1 3 6 8 9 9 9 7 6 6 5 4 3 2 1 1 1 2 3 3 4 4 4 5
10 10 9 7 5 4 4 6 8 8 8 7 8 9 9 9 8 8 8 9 11 12 12 12 10 10 10 11 11 12 12 10 8 8 10 11 8 6 7 8 6 3 2 1 1 3 4 4 3 3 3 4 6 7 8 9 8 7 6 5 4 2 1 1 2 2 2 2 2 2 3 4 4 4
9 10 10 9 6 4 4 6 7 8 7 7 7 8 8 8 8 8 8 10 11 11 12 12 11 9 9 10 10 11 12 11 8 7 10 10 7 6 7 8 6 4 4 3 2 1 1 1 1 2 3 4 5 7 8 8 8 7 6 4 2 1 2 3 4 4 3 3 2 1 3 4 5 5
9 9 10 10 8 6 5 6 7 7 7 6 6 8 8 8 9 9 9 10 11 11 12 12 11 9 8 8 9 9 11 11 8 7 9 8 5 5 8 8 6 5 4 4 3 3 2 2 2 2 3 3 4 5 6 6 5 4 3 3 3 3 3 2 3 4 1 2 3 1 2 3 4 5
9 9 10 11 11 10 10 10 10 10 10 8 6 7 8 8 9 10 10 11 11 10 11 12 11 9 7 7 7 8 10 11 8 7 8 8 4 4 6 7 6 5 3 2 3 3 2 2 3 2 2 2 3 5 6 6 4 3 1 1 3 3 4 3 2 1 0 2 2 1 0 2 3 3
10 10 10 10 11 12 12 12 12 12 11 10 8 7 7 7 8 10 11 11 11 10 10 11 11 10 8 6 6 6 8 10 8 7 8 7 3 4 5 7 7 5 3 2 2 2 2 2 2 2 2 3 4 4 5 5 3 2 1 1 2 3 3 4 4 3 2 3 4 3 0 2 2 2
Wind_Direction
329 328 328 325 322 325 324 322 327 331 333 331 330 330 337 349 350 351 13 27 27 25 17 11 14 16 17 19 17 13 4 286 283 268 245 238 237 237 236 234 231 229 228 226 221 219 219 219 218 219 220 223 223 219 214 213 212 211 213 214 214 215 216 216 215 217 218 216 215 214 212 213 214 215
325 322 319 316 309 304 301 299 300 307 320 327 327 329 330 335 344 352 7 19 13 10 11 8 7 12 14 14 11 8 9 348 311 299 270 241 234 236 236 234 232 229 228 225 222 221 220 219 218 219 218 220 222 222 217 214 211 210 212 213 213 214 216 218 219 219 219 217 217 217 216 215 216 217
333 330 327 322 312 301 291 285 283 285 295 306 315 325 327 324 330 342 357 23 2 349 4 14 11 11 13 13 7 0 5 7 348 328 305 261 237 235 235 234 233 231 229 226 224 223 221 221 221 219 219 219 220 222 220 216 213 212 212 212 213 214 215 218 220 222 221 220 218 217 217 217 218 218
342 342 342 338 331 321 305 289 280 277 279 287 294 299 304 305 309 323 334 348 322 330 349 5 4 9 13 7 2 1 5 4 2 358 335 286 249 237 235 235 232 230 229 226 224 223 221 221 222 221 221 220 220 221 221 218 215 214 213 214 214 213 215 217 219 222 224 223 222 220 217 217 219 220
341 339 339 335 332 331 327 315 298 285 278 276 277 279 287 292 290 300 321 320 266 291 323 344 345 357 6 357 353 5 9 3 5 8 1 323 279 274 281 267 246 235 230 225 222 222 220 218 219 221 221 221 220 221 221 217 215 215 214 214 213 213 214 216 218 221 225 225 224 223 220 218 217 219
345 343 342 339 336 334 335 334 325 309 290 276 269 267 275 289 289 290 306 319 310 280 275 306 323 339 355 352 350 0 9 13 7 1 3 359 335 327 335 325 279 235 225 225 223 221 220 218 218 219 220 220 219 220 220 217 215 215 215 214 212 211 214 216 217 219 224 225 225 225 223 220 216 217
350 350 350 350 355 354 349 351 352 343 321 293 274 263 264 275 284 289 301 311 313 304 291 306 314 327 349 357 4 5 6 11 6 355 358 0 359 358 352 344 335 241 222 225 224 219 217 217 217 217 218 219 219 219 219 217 215 215 217 216 213 213 215 217 218 219 221 224 226 225 223 221 218 216
351 351 353 357 4 10 13 14 12 6 353 330 308 283 267 267 271 280 294 304 307 311 314 322 332 343 350 357 10 9 2 3 359 355 355 349 354 8 6 357 355 330 270 226 215 216 216 214 216 217 217 218 219 219 219 218 216 215 217 216 214 214 216 218 218 219 220 222 224 224 222 222 221 219
347 348 353 360 8 18 28 29 25 16 7 358 348 335 306 291 275 269 280 293 302 305 304 312 331 341 343 342 339 330 338 12 6 346 343 341 343 358 7 13 15 352 349 14 194 209 216 215 216 217 217 218 219 219 219 218 216 216 217 216 215 215 217 218 218 217 218 219 221 221 220 220 222 222
349 351 358 3 13 27 35 34 32 25 16 11 13 21 13 359 352 270 268 279 291 299 298 293 300 307 318 328 327 323 322 331 358 343 327 324 330 341 354 11 27 26 6 12 110 209 217 214 215 217 218 220 220 219 219 218 215 215 216 216 216 216 217 218 219 216 215 216 217 218 218 219 220 221
9 11 12 11 18 30 35 31 28 30 28 21 22 33 38 37 38 350 264 268 277 291 305 301 298 300 309 320 322 328 335 330 325 321 308 303 317 338 350 2 21 33 31 24 21 0 293 211 210 214 218 222 221 219 219 218 216 215 216 217 216 215 217 219 219 217 215 214 214 215 218 219 219 219
31 31 25 21 22 24 24 19 16 23 32 30 35 44 41 26 21 14 343 291 283 292 300 302 306 307 310 315 313 314 317 315 316 319 317 320 324 332 348 357 4 17 29 33 31 21 21 45 188 208 214 218 221 221 220 219 217 215 216 216 216 216 216 218 219 219 218 216 214 214 215 218 219 219
36 36 33 29 27 21 17 11 6 6 10 22 35 43 42 33 32 32 26 9 340 324 313 304 306 311 314 318 318 315 315 317 327 337 335 332 326 322 331 341 354 9 25 34 34 32 31 37 63 210 214 214 217 222 222 220 218 217 216 215 215 216 215 216 219 220 220 219 216 214 214 215 219 221
36 35 35 34 30 23 22 18 10 3 353 345 359 11 15 13 16 19 15 12 7 358 352 343 330 324 325 326 326 327 329 330 330 329 325 318 311 309 307 303 332 11 23 34 36 32 31 34 27 266 228 212 211 217 222 223 222 219 217 216 214 214 215 217 220 220 221 221 219 216 214 214 216 220
36 34 34 34 31 26 24 25 22 12 356 336 334 343 347 345 347 351 353 358 359 354 356 360 356 354 356 349 339 331 329 329 328 325 321 315 308 302 297 289 288 344 17 34 37 28 22 26 25 0 265 234 218 216 219 223 226 223 218 215 213 213 216 218 221 222 223 223 222 220 217 217 218 219
35 34 33 33 31 28 24 23 23 19 3 344 341 342 342 338 338 340 340 342 345 349 356 3 6 14 20 17 13 0 343 336 334 332 326 312 309 307 302 301 299 309 10 38 41 29 15 10 16 17 354 302 262 246 233 224 223 222 219 217 214 213 216 218 220 222 224 226 226 224 222 222 223 223
27 27 29 33 31 26 23 23 23 20 15 3 351 346 344 339 333 332 331 332 339 356 12 11 10 20 20 18 23 19 3 350 340 337 336 317 302 305 303 301 299 301 330 12 53 48 26 5 358 8 13 9 345 303 276 258 244 228 223 222 221 218 218 218 219 221 223 226 227 227 226 227 228 228
10 11 20 31 30 23 20 23 22 20 21 16 5 358 353 347 344 342 344 350 357 13 23 14 8 9 5 7 13 7 357 354 349 342 337 325 294 287 295 297 298 301 309 319 338 32 35 22 10 8 11 11 12 8 334 292 274 266 254 238 228 225 223 222 221 222 223 225 227 227 228 229 229 229
352 358 16 30 29 23 20 20 18 18 21 20 14 13 10 2 360 2 8 20 25 26 22 13 5 1 359 3 4 358 356 355 348 341 337 330 315 297 291 294 299 303 306 310 316 328 0 27 19 12 17 16 15 19 12 347 307 282 284 277 238 225 224 225 225 225 225 227 227 227 227 228 228 227
345 354 14 28 26 23 21 18 15 16 17 15 15 19 19 13 9 15 24 28 21 14 15 12 4 358 359 1 359 355 352 346 339 337 335 327 317 306 283 280 289 298 307 312 315 316 315 337 6 10 18 18 15 13 9 1 351 327 301 283 261 234 220 220 225 228 229 229 229 228 228 227 226 226
345 355 13 23 23 22 18 15 15 16 16 14 13 15 17 16 2 320 11 25 6 357 3 360 346 342 343 344 346 345 343 339 337 339 337 325 312 301 259 260 284 299 315 328 328 328 327 312 305 349 13 17 15 16 18 19 14 5 352 308 272 264 242 224 224 226 228 230 231 230 230 229 228 228
349 1 14 17 16 18 16 12 12 14 14 13 10 9 10 14 11 334 275 276 293 308 332 335 328 328 328 330 335 339 341 341 342 347 352 349 337 315 244 219 289 302 317 349 359 353 352 358 333 267 308 13 20 16 9 10 13 12 12 8 317 280 272 261 239 225 224 228 230 231 230 227 225 226
359 9 13 12 13 14 10 8 9 9 9 7 4 2 1 6 11 6 336 291 275 273 281 290 299 308 317 326 334 338 340 343 347 353 1 10 14 8 5 48 10 325 321 344 8 13 7 32 79 120 158 144 28 18 6 352 355 5 8 14 11 344 284 260 247 233 229 231 234 237 235 226 221 223
12 12 10 12 14 11 5 5 5 3 3 2 359 357 359 1 4 5 356 335 310 295 287 286 290 298 309 321 332 334 335 344 357 4 9 20 32 32 31 47 58 10 338 340 0 12 13 31 67 92 115 117 73 18 24 22 8 5 5 8 14 16 7 273 241 240 245 244 240 240 240 229 221 223
8 8 9 12 14 7 359 359 360 359 359 359 357 356 359 0 0 1 360 354 346 337 323 311 306 306 309 316 324 327 334 352 10 14 13 16 26 34 39 53 65 39 13 19 22 11 4 10 23 58 112 113 101 59 42 36 27 24 24 22 23 28 30 25 320 248 253 257 246 238 236 230 221 220
0 1 7 12 12 4 356 354 357 0 0 359 359 359 1 2 3 4 4 2 1 358 352 344 334 325 321 321 320 323 337 2 19 20 16 13 14 20 30 40 43 32 31 43 39 27 19 15 13 17 110 142 111 88 61 38 32 37 40 29 26 34 38 38 40 30 262 252 245 241 239 234 226 222
11 12 11 10 8 2 357 355 358 2 3 3 2 2 5 9 13 13 12 10 8 4 357 351 341 331 329 330 328 332 343 11 26 21 14 8 6 11 21 26 24 18 18 22 17 18 22 17 9 7 358 217 171 137 93 60 27 28 41 43 36 35 32 31 39 44 38 23 314 262 242 226 216 218
18 19 11 5 2 357 353 353 356 358 1 6 5 7 15 26 30 27 24 21 17 12 9 7 1 351 345 342 341 343 352 8 21 16 9 2 358 2 8 11 15 24 32 21 0 349 351 354 350 343 337 322 189 203 203 200 246 300 15 46 39 34 30 23 21 29 35 33 30 29 34 197 197 206
9 10 7 3 358 351 348 352 359 1 0 3 5 11 26 36 38 35 30 26 26 27 28 27 20 14 9 360 353 350 349 353 1 6 10 3 354 352 353 352 356 2 3 359 357 355 356 3 2 349 328 302 188 178 192 205 224 244 275 356 3 18 25 16 8 12 17 17 19 29 40 57 173 202
359 2 8 7 357 349 348 354 6 6 358 355 360 14 29 33 32 32 29 26 27 28 29 27 21 15 11 3 354 345 340 345 354 354 187 258 344 328 319 324 329 333 337 341 344 343 349 2 11 9 353 316 240 145 165 202 219 220 219 325 340 2 21 22 11 3 358 1 11 20 24 25 23 19
352 360 8 10 1 351 350 354 2 2 352 348 358 18 27 27 25 25 24 23 22 22 22 22 17 9 1 353 348 347 347 355 3 2 220 216 248 268 278 298 313 321 328 337 339 341 347 356 5 12 10 1 7 112 130 183 213 177 110 58 22 20 24 18 12 9 4 4 11 16 17 18 20 24
335 351 5 10 5 358 355 355 355 350 346 348 2 17 22 23 23 22 20 20 20 20 19 17 13 6 360 354 353 356 356 358 6 10 342 245 244 251 257 272 293 307 314 322 329 338 349 355 1 10 13 8 2 17 117 199 204 159 73 38 27 27 20 8 1 1 5 8 9 9 12 17 20 26
317 336 353 1 0 359 359 356 349 340 336 340 352 7 16 20 21 21 20 20 21 20 19 16 11 5 2 359 358 358 357 357 4 15 14 322 269 263 261 263 273 284 295 310 331 343 338 336 344 356 2 349 307 265 240 218 210 226 334 354 358 354 353 359 4 1 358 1 4 4 6 12 15 21
300 319 336 345 349 352 356 355 347 335 323 323 333 351 8 14 17 19 20 21 22 21 19 17 12 6 4 5 4 1 1 2 8 15 20 15 338 294 275 267 271 279 287 294 311 334 335 329 331 333 333 324 291 263 245 231 231 234 252 302 321 324 331 350 5 2 355 351 352 353 353 349 347 2
291 307 323 333 338 343 348 351 346 331 316 313 318 330 348 3 10 13 15 18 20 21 20 19 15 9 8 11 13 12 11 11 12 10 6 2 349 309 286 281 282 288 294 297 302 314 327 340 340 320 296 286 287 279 251 224 222 220 225 265 287 277 226 353 340 348 11 7 356 351 344 330 300 271
284 301 319 329 333 335 339 344 343 332 316 308 312 321 332 348 358 2 8 14 16 16 19 21 18 14 14 17 19 18 17 13 9 3 352 339 326 310 300 299 299 303 307 310 311 310 313 331 351 341 297 270 266 258 228 199 206 212 217 232 237 199 160 143 111 55 49 27 10 356 339 322 284 244
281 298 316 322 323 328 331 336 340 336 321 309 308 314 320 331 342 346 354 6 10 10 14 19 17 13 14 17 21 21 16 10 5 359 348 333 320 312 305 301 301 302 302 301 301 300 300 315 351 13 346 249 229 216 207 199 185 176 186 196 186 160 140 135 130 106 64 32 15 3 352 347 346 201
281 297 311 311 315 325 323 326 335 340 331 320 314 312 313 321 330 333 341 356 2 2 6 12 14 11 8 10 16 18 16 15 13 7 1 351 338 327 320 313 307 301 295 288 283 284 287 293 322 11 39 177 179 162 154 162 157 143 136 149 159 151 138 132 127 99 64 35 12 9 23 47 76 101
280 292 306 312 317 320 313 316 327 337 337 331 324 319 315 316 317 320 329 343 351 355 358 3 9 9 5 5 10 13 14 18 19 15 13 11 3 356 349 342 333 321 307 287 272 272 276 274 276 310 28 151 158 144 129 123 125 127 121 121 134 148 156 155 135 83 55 39 24 24 38 58 77 76
279 287 299 311 325 333 317 307 312 325 337 340 333 326 322 316 307 304 314 328 339 349 355 358 4 7 5 5 7 9 12 15 15 15 13 8 7 12 10 1 354 346 333 305 267 260 264 264 258 254 218 160 148 141 132 121 116 118 119 113 110 120 144 153 123 62 36 34 28 28 44 66 79 72
283 286 293 302 325 352 338 309 300 307 325 343 346 337 329 318 304 294 301 316 328 341 349 353 357 2 4 5 6 6 8 10 11 15 16 12 16 29 23 10 7 15 24 8 294 257 256 255 244 226 198 166 146 139 135 125 113 109 109 106 102 106 121 340 341 314 274 277 338 25 63 82 90 88
293 292 291 293 306 338 347 324 311 310 318 336 353 351 339 322 307 296 297 308 320 332 341 346 349 354 0 6 6 4 6 6 5 10 16 19 33 48 32 21 26 46 58 50 29 337 294 265 200 174 163 150 144 147 146 133 115 100 90 84 70 29 336 321 332 333 291 244 242 47 77 92 99 100
295 296 294 292 292 297 304 306 305 305 306 315 341 353 345 328 311 300 298 305 314 323 333 340 343 346 355 4 7 5 5 3 357 358 11 20 38 53 40 34 33 38 47 49 33 19 23 47 72 104 131 134 139 157 164 154 138 120 90 69 62 56 47 18 350 353 345 202 204 184 91 91 89 89
290 292 293 292 290 288 289 291 291 290 288 290 311 339 342 329 314 303 299 301 307 316 327 336 340 343 349 0 6 7 6 2 352 345 358 10 33 70 57 44 33 24 34 47 33 25 37 59 66 82 128 162 169 175 176 172 169 177 166 50 60 71 78 91 101 71 106 168 172 169 57 2 15 50
287 289 291 292 291 290 292 293 292 289 286 285 295 315 328 326 315 304 299 299 301 308 318 328 336 340 345 354 1 5 6 3 355 343 348 2 47 100 74 50 39 30 27 33 35 44 70 89 90 104 142 168 179 185 186 186 195 216 245 22 54 78 92 105 119 131 150 155 146 133 53 341 12 55